Regional Weather Roundup
Issued by NWS

Home | Current Version | Previous Version | Text Only | Print | Product List | Glossary On
Versions: 1 2 3 4 5 6 7 8 9 10 11 12 13 14 15 16 17 18 19 20 21 22 23 24 25 26 27 28 29 30 31 32 33 34 35 36 37 38 39 40 41 42 43 44 45 46 47 48 49 50
000
ASUS45 KREV 271110
RWRNV
NEVADA REGIONAL WEATHER ROUNDUP
NATIONAL WEATHER SERVICE RENO NV
400 AM PDT THU APR 27 2017

NOTE: "FAIR" INDICATES FEW OR NO CLOUDS BELOW 12,000 FEET WITH NO
SIGNIFICANT WEATHER AND/OR OBSTRUCTIONS TO VISIBILITY.

NVZ001-003-004-271200-
WESTERN NEVADA

CITY           SKY/WX    TMP DP  RH WIND       PRES   REMARKS
RENO           CLOUDY    46  42  86 NE9       29.97R
CARSON CITY    CLOUDY    50  39  66 W9        29.97R
MINDEN         CLOUDY    50  32  50 N12       29.96R
FALLON         CLOUDY    48  39  71 SW3       29.94S
LOVELOCK       CLOUDY    47  29  49 N13       29.94S
HAWTHORNE      CLEAR     50  36  57 NW10      29.93R
$$

NVZ002-CAZ072-073-271200-
NORTHERN AND CENTRAL SIERRA

CITY           SKY/WX    TMP DP  RH WIND       PRES   REMARKS
S. LAKE TAHOE  MOCLDY    42  34  73 SW8       30.00S
TRUCKEE        CLOUDY    41  37  87 CALM      30.01R
SQUAW VLY 8000   N/A     32  32 100 W5          N/A
SUSANVILLE     CLEAR     41  34  75 NW5       30.00R
MAMMOTH LAKES  FAIR      47  11  23 NW18G26   29.95S
$$

NVZ030-031-036-271200-
NORTHERN NEVADA

CITY           SKY/WX    TMP DP  RH WIND       PRES   REMARKS
ELKO           PTCLDY    36  27  69 CALM      29.89S
WINNEMUCCA     MOCLDY    35  31  85 W10       29.93S
WENDOVER       CLEAR     43  22  43 NW37G44   29.78F
$$

NVZ035-037-271200-
CENTRAL NEVADA

CITY           SKY/WX    TMP DP  RH WIND       PRES   REMARKS
ELY            MOCLDY    37  33  85 N6        29.89R
EUREKA           N/A     37  31  78 N3        29.90S
$$

NVZ013-014-271200-
SOUTH CENTRAL NEVADA

CITY           SKY/WX    TMP DP  RH WIND       PRES   REMARKS
TONOPAH        PTCLDY    47  33  58 N26G36    29.90R
$$

NVZ017-020-022-271200-
SOUTHERN NEVADA

CITY           SKY/WX    TMP DP  RH WIND       PRES   REMARKS
LAS VEGAS      MOCLDY    71  25  17 NW10G22   29.67R
N. LAS VEGAS   PTCLDY    71  26  18 NW10      29.69R
NELLIS AFB     NOT AVBL
HENDERSON      CLEAR     64  44  48 CALM      29.72R
MERCURY        PTCLDY    58  28  32 E7        29.79R
$$



USA.gov is the U.S. government's official web portal to all federal, state and local government web resources and services.